Location: Aldenham
(51.6667°N, 0.3500°W)
Time: 08:36:20
(UTC+00:00)

Explorer 7 - Pass Details

Date: 18 February 2026
Orbit: 430 x 541 km, 50.2° (Epoch: 12 March)

Event Time Altitude Azimuth Distance (km) Brightness Sun altitude
Rises 18:05:59 0° 270° (W) 2,487 12.4 -7.5°
Reaches altitude 10° 18:08:06 10° 269° (W) 1,631 10.9 -7.8°
Maximum altitude 18:11:46 70° 186° (S) 517 6.7 -8.4°
Enters shadow 18:15:28 11° 102° (ESE) 1,649 8.7 -9.0°
Drops below altitude 10° 18:15:36 10° 102° (ESE) 1,699 - -9.0°
Sets 18:17:50 0° 100° (E) 2,604 - -9.3°
